Location: Vienna
(48.2082°N, 16.3738°E)
Time: 12:08:21
(UTC+01:00)

ISS - Pass Details

Date: 25 November 2019
Orbit: 411 x 421 km, 51.6° (Epoch: 15 December)

Event Time Altitude Azimuth Distance (km) Brightness Sun altitude
Rises 19:12:53 0° 264° (W) 2,359 1.2 -30.4°
Reaches altitude 10° 19:15:00 10° 269° (W) 1,498 -0.1 -30.8°
Enters shadow 19:15:29 13° 271° (W) 1,310 -0.4 -30.9°
